TimeEST,TemperatureF,Dew PointF,Humidity,Sea Level PressureIn,VisibilityMPH,Wind Direction,Wind SpeedMPH,Gust SpeedMPH,PrecipitationIn,Events,Conditions,WindDirDegrees,DateUTC
12:35 AM,37.4,35.6,93,30.20,10.0,Calm,Calm,-,N/A,,Overcast,0,2013-01-07 05:35:00
12:55 AM,39.2,35.6,87,30.20,10.0,Calm,Calm,-,N/A,,Overcast,0,2013-01-07 05:55:00
1:15 AM,37.4,33.8,87,30.20,10.0,Calm,Calm,-,N/A,,Mostly Cloudy,0,2013-01-07 06:15:00
1:35 AM,35.6,32.0,87,30.21,10.0,Calm,Calm,-,N/A,,Scattered Clouds,0,2013-01-07 06:35:00
1:55 AM,35.6,30.2,81,30.21,10.0,Calm,Calm,-,N/A,,Partly Cloudy,0,2013-01-07 06:55:00
2:15 AM,33.8,30.2,87,30.21,10.0,Calm,Calm,-,N/A,,Clear,0,2013-01-07 07:15:00
2:35 AM,32.0,30.2,93,30.21,6.0,Calm,Calm,-,N/A,,Clear,0,2013-01-07 07:35:00
2:55 AM,30.2,26.6,86,30.21,5.0,Calm,Calm,-,N/A,,Clear,0,2013-01-07 07:55:00
3:15 AM,30.2,26.6,86,30.21,8.0,Calm,Calm,-,N/A,,Clear,0,2013-01-07 08:15:00
3:35 AM,30.2,26.6,86,30.22,6.0,Calm,Calm,-,N/A,,Clear,0,2013-01-07 08:35:00
3:55 AM,30.2,28.4,93,30.22,6.0,Calm,Calm,-,N/A,,Clear,0,2013-01-07 08:55:00
4:15 AM,30.2,26.6,86,30.23,10.0,Calm,Calm,-,N/A,,Clear,0,2013-01-07 09:15:00
4:35 AM,28.4,26.6,93,30.24,8.0,Calm,Calm,-,N/A,,Clear,0,2013-01-07 09:35:00
4:55 AM,30.2,28.4,93,30.24,10.0,Calm,Calm,-,N/A,,Clear,0,2013-01-07 09:55:00
5:15 AM,28.4,26.6,93,30.25,8.0,Calm,Calm,-,N/A,,Clear,0,2013-01-07 10:15:00
5:35 AM,28.4,24.8,86,30.26,7.0,Calm,Calm,-,N/A,,Clear,0,2013-01-07 10:35:00
5:55 AM,26.6,24.8,93,30.26,8.0,Calm,Calm,-,N/A,,Clear,0,2013-01-07 10:55:00
6:15 AM,26.6,24.8,93,30.28,9.0,Calm,Calm,-,N/A,,Clear,0,2013-01-07 11:15:00
6:35 AM,28.4,26.6,93,30.28,10.0,Calm,Calm,-,N/A,,Clear,0,2013-01-07 11:35:00
6:55 AM,30.2,26.6,86,30.30,10.0,Calm,Calm,-,N/A,,Clear,0,2013-01-07 11:55:00
7:35 AM,33.8,28.4,81,30.33,10.0,Calm,Calm,-,N/A,,Clear,0,2013-01-07 12:35:00
7:55 AM,33.8,28.4,81,30.34,10.0,Calm,Calm,-,N/A,,Clear,0,2013-01-07 12:55:00
8:15 AM,35.6,28.4,75,30.35,10.0,Calm,Calm,-,N/A,,Clear,0,2013-01-07 13:15:00
8:35 AM,37.4,30.2,75,30.36,10.0,Calm,Calm,-,N/A,,Clear,0,2013-01-07 13:35:00
8:55 AM,39.2,28.4,65,30.37,10.0,NNE,3.5,-,N/A,,Clear,20,2013-01-07 13:55:00
9:15 AM,41.0,30.2,65,30.38,10.0,NNE,4.6,-,N/A,,Clear,30,2013-01-07 14:15:00
9:35 AM,42.8,28.4,57,30.39,10.0,NNE,6.9,16.1,N/A,,Clear,30,2013-01-07 14:35:00
9:55 AM,44.6,28.4,53,30.39,10.0,NE,9.2,-,N/A,,Clear,40,2013-01-07 14:55:00
10:15 AM,44.6,28.4,53,30.40,10.0,NE,10.4,18.4,N/A,,Clear,50,2013-01-07 15:15:00
10:35 AM,46.4,28.4,50,30.40,10.0,NE,8.1,-,N/A,,Clear,40,2013-01-07 15:35:00
10:55 AM,46.4,28.4,50,30.40,10.0,NE,9.2,17.3,N/A,,Clear,40,2013-01-07 15:55:00
11:15 AM,46.4,28.4,50,30.41,10.0,NNE,6.9,-,N/A,,Clear,30,2013-01-07 16:15:00
11:35 AM,48.2,28.4,46,30.40,10.0,NNE,8.1,-,N/A,,Clear,30,2013-01-07 16:35:00
11:55 AM,48.2,28.4,46,30.39,10.0,NE,6.9,-,N/A,,Clear,50,2013-01-07 16:55:00
12:15 PM,50.0,28.4,43,30.38,10.0,ENE,4.6,-,N/A,,Clear,70,2013-01-07 17:15:00
12:35 PM,50.0,28.4,43,30.38,10.0,NE,5.8,-,N/A,,Clear,40,2013-01-07 17:35:00
12:55 PM,51.8,26.6,38,30.37,10.0,East,8.1,-,N/A,,Clear,100,2013-01-07 17:55:00
1:15 PM,51.8,26.6,38,30.37,10.0,ENE,4.6,-,N/A,,Clear,70,2013-01-07 18:15:00
1:35 PM,51.8,26.6,38,30.37,10.0,ENE,5.8,-,N/A,,Clear,70,2013-01-07 18:35:00
2:15 PM,51.8,26.6,38,30.37,10.0,NE,5.8,-,N/A,,Clear,40,2013-01-07 19:15:00
2:35 PM,51.8,26.6,38,30.37,10.0,NE,4.6,-,N/A,,Clear,50,2013-01-07 19:35:00
2:55 PM,51.8,26.6,38,30.37,10.0,ESE,4.6,-,N/A,,Clear,120,2013-01-07 19:55:00
3:15 PM,51.8,26.6,38,30.38,10.0,Calm,Calm,-,N/A,,Clear,0,2013-01-07 20:15:00
3:35 PM,51.8,26.6,38,30.38,10.0,ESE,3.5,-,N/A,,Clear,110,2013-01-07 20:35:00
3:55 PM,51.8,26.6,38,30.38,10.0,East,3.5,-,N/A,,Clear,100,2013-01-07 20:55:00
4:15 PM,51.8,26.6,38,30.38,10.0,Calm,Calm,-,N/A,,Clear,0,2013-01-07 21:15:00
4:35 PM,51.8,26.6,38,30.38,10.0,East,5.8,-,N/A,,Clear,90,2013-01-07 21:35:00
4:55 PM,50.0,26.6,40,30.39,10.0,East,4.6,-,N/A,,Clear,80,2013-01-07 21:55:00
5:15 PM,46.4,26.6,46,30.39,10.0,East,4.6,-,N/A,,Clear,80,2013-01-07 22:15:00
5:35 PM,46.4,26.6,46,30.40,10.0,East,3.5,-,N/A,,Clear,90,2013-01-07 22:35:00
6:15 PM,42.8,26.6,53,30.41,10.0,Calm,Calm,-,N/A,,Clear,0,2013-01-07 23:15:00
6:35 PM,39.2,26.6,61,30.41,10.0,Calm,Calm,-,N/A,,Clear,0,2013-01-07 23:35:00
6:55 PM,41.0,28.4,61,30.41,10.0,Calm,Calm,-,N/A,,Clear,0,2013-01-07 23:55:00
7:15 PM,39.2,26.6,61,30.42,10.0,Calm,Calm,-,N/A,,Clear,0,2013-01-08 00:15:00
7:35 PM,37.4,26.6,65,30.42,10.0,Calm,Calm,-,N/A,,Clear,0,2013-01-08 00:35:00
7:55 PM,37.4,28.4,70,30.42,10.0,Calm,Calm,-,N/A,,Clear,0,2013-01-08 00:55:00
8:15 PM,37.4,26.6,65,30.42,10.0,Calm,Calm,-,N/A,,Clear,0,2013-01-08 01:15:00
8:35 PM,35.6,26.6,70,30.41,10.0,Calm,Calm,-,N/A,,Clear,0,2013-01-08 01:35:00
8:55 PM,35.6,28.4,75,30.42,10.0,Calm,Calm,-,N/A,,Clear,0,2013-01-08 01:55:00
9:15 PM,35.6,26.6,70,30.42,10.0,Calm,Calm,-,N/A,,Clear,0,2013-01-08 02:15:00
9:35 PM,33.8,28.4,81,30.43,10.0,Calm,Calm,-,N/A,,Clear,0,2013-01-08 02:35:00
9:55 PM,32.0,26.6,80,30.43,10.0,Calm,Calm,-,N/A,,Clear,0,2013-01-08 02:55:00
10:15 PM,33.8,26.6,75,30.42,10.0,Calm,Calm,-,N/A,,Clear,0,2013-01-08 03:15:00
10:35 PM,30.2,24.8,80,30.41,10.0,Calm,Calm,-,N/A,,Clear,0,2013-01-08 03:35:00
10:55 PM,30.2,24.8,80,30.41,10.0,Calm,Calm,-,N/A,,Clear,0,2013-01-08 03:55:00
11:15 PM,30.2,26.6,86,30.41,10.0,Calm,Calm,-,N/A,,Clear,0,2013-01-08 04:15:00
11:35 PM,32.0,26.6,80,30.41,10.0,Calm,Calm,-,N/A,,Clear,0,2013-01-08 04:35:00
11:55 PM,30.2,24.8,80,30.41,10.0,Calm,Calm,-,N/A,,Clear,0,2013-01-08 04:55:00